Starlink 30338

operational
NORAD ID: 57718 Int'l Des: 2023-129 Owner: SPXS Country: US Constellation: starlink
LEOCIRCULAR

About Starlink 30338

Description loading...

Live Position

Loading 3D Globe...

Upcoming Passes

Altitude History

Altitude vs Time

uPlot chart will show altitude changes over time

Two-Line Element Set

1 57718U 23129W 25303.17609226 .00000402 00000-0 44830-4 0 9990
2 57718 43.0032 109.3067 0001219 263.2958 96.7745 15.02536423121021
Epoch: Oct 30, 2025 • Age: 24 hours

Current Status

Altitude 559.3 km
Velocity 7.59 km/s
Sub-Earth Point 23.49°N, 27°E
Launch Date Aug 27, 2023
Age 2.1 years
Type internet

Technical Details

Classification Payload
Mass 730.00 kg
Dry Mass 700.00 kg
Total Mass 730.00 kg
Length 0.30 m
Diameter 4.10 m
Span 29.00 m
Shape Box + pan
Manufacturer SPXS
Bus Type Starlink V2M
Phase Status In Orbit
Owner/State SPXS/US

Large Constellations

Loading constellations...